Location: Unspecified
(0.0000°N, 0.0000°E)
Time: 09:03:49
(UTC+00:00)

Envisat - Pass Details

Date: 21 February 2018
Orbit: 764 x 766 km, 98.2° (Epoch: 17 February)

Event Time Altitude Azimuth Distance (km) Brightness Sun altitude
Rises 18:42:27 0° 126° (SE) 3,227 5.8 -7.1°
Enters shadow 18:47:32 10° 82° (E) 2,299 4.8 -8.3°
Exits shadow 18:50:00 - 55° (NE) 2,451 5.1 -9.0°
Sets 18:53:19 0° 29° (NNE) 3,215 5.8 -9.8°
